RH
96 80 68 48 40 41 45 41 39 37 37 38 38 39 44 44 48 57 68 69 76 83 77 68 62 62 55 55 57 61 90 90 69 52 41 28 44 23 20 36 57 60 72 72 72
100 98 86 61 47 40 37 38 36 32 31 30 29 32 36 42 57 66 68 77 81 84 78 71 73 65 65 59 68 79 94 76 55 47 42 38 48 46 42 46 69 79 85 77 77
98 97 90 80 45 39 38 36 34 32 31 30 28 33 34 44 68 69 68 80 68 72 73 70 65 69 70 58 65 74 91 63 55 49 48 47 48 43 44 56 70 82 91 83 73
96 95 82 66 46 36 35 34 33 32 30 28 27 36 35 52 74 61 59 72 64 66 68 61 64 70 73 64 63 80 64 59 56 51 52 48 45 46 40 50 68 71 82 87 82
97 98 82 46 29 30 32 32 32 31 29 27 26 38 45 59 55 60 55 60 65 64 63 62 70 77 83 71 67 67 69 62 66 64 59 50 47 45 41 38 57 69 80 92 85
98 100 85 35 31 28 26 28 29 29 28 27 28 39 64 63 52 51 53 66 65 65 62 61 67 67 78 72 69 64 70 73 67 63 58 58 54 43 38 36 29 76 82 81 87
98 97 67 37 35 34 30 25 25 26 25 26 36 46 59 56 49 56 60 63 65 67 67 62 60 69 76 76 64 67 79 71 72 60 59 54 59 47 35 32 37 44 80 86 78
82 73 38 34 35 32 29 28 30 29 27 27 41 64 65 50 41 56 58 59 60 62 65 64 64 71 73 69 69 78 76 91 59 65 57 57 68 45 39 34 33 38 90 94 97
47 36 36 37 36 32 31 31 31 29 29 40 51 63 60 49 54 54 55 60 60 58 60 61 64 74 76 81 86 75 92 90 75 56 60 61 69 47 40 38 36 29 88 87 86
31 32 34 36 34 33 31 40 35 53 55 58 58 50 45 42 45 52 56 58 60 62 67 69 80 84 79 88 100 100 95 73 77 54 59 64 62 47 38 39 39 33 53 88 90
37 24 28 35 31 36 39 48 47 57 50 51 38 44 30 44 47 52 55 56 59 69 87 76 83 89 75 67 72 73 70 72 60 53 64 65 59 49 42 42 45 54 60 85 78
49 22 24 30 31 36 38 58 63 62 66 44 40 29 31 37 46 58 51 64 65 73 64 75 85 66 60 55 61 63 61 67 60 52 61 58 57 46 40 36 40 45 61 83 92
59 29 22 27 37 42 38 52 52 65 78 47 32 33 36 39 44 52 54 48 55 65 59 56 58 52 58 61 65 65 59 70 67 60 51 54 60 50 37 36 32 31 57 80 90
64 43 23 28 43 47 53 51 60 64 84 54 30 33 40 41 48 40 48 47 46 57 48 51 56 59 64 72 65 76 65 68 69 68 84 47 94 53 41 39 34 35 66 84 96
64 57 25 48 47 52 49 49 53 60 45 30 30 31 33 39 35 43 45 48 51 45 41 48 58 71 75 70 56 68 65 74 70 70 72 69 86 55 43 41 36 37 75 88 96
50 55 54 47 48 59 46 49 58 72 36 33 31 36 40 44 38 51 48 49 51 47 46 48 39 45 49 45 51 56 62 60 60 67 96 71 72 67 50 38 34 44 82 92 98
48 42 54 47 51 51 46 61 75 59 28 26 31 32 35 36 37 42 50 64 53 53 48 45 47 45 41 51 52 59 73 92 95 97 91 64 80 66 41 42 32 48 89 96 94
46 37 48 44 52 46 63 64 42 34 28 29 32 36 43 31 31 35 39 46 41 40 55 68 62 52 43 52 51 65 70 90 91 92 82 54 72 65 45 44 42 48 81 97 96
42 45 69 56 53 50 75 82 44 50 29 32 34 39 36 33 29 31 37 39 41 41 54 50 50 36 42 36 41 49 65 52 69 69 89 76 67 52 44 44 44 58 91 96 92
69 86 64 68 51 62 75 62 57 28 37 34 31 36 28 30 33 34 29 29 35 34 38 42 56 39 41 40 45 46 44 66 84 80 73 74 66 79 64 50 49 62 98 97 90
97 92 66 57 53 80 82 75 52 33 31 39 36 32 33 28 28 32 29 27 33 40 40 44 53 47 37 52 53 58 56 54 54 66 72 69 68 61 66 58 52 63 90 96 93
96 92 64 56 71 84 80 52 35 33 37 43 42 43 34 28 31 37 39 28 34 44 51 47 51 68 52 37 35 39 47 46 69 54 56 56 68 39 47 47 51 54 93 88 78
90 96 69 62 72 66 56 49 34 34 45 46 48 48 37 35 35 38 33 40 44 46 44 40 51 68 50 45 43 43 41 40 41 55 61 59 59 41 44 46 53 81 92 82 74
85 95 82 82 75 66 78 64 58 50 43 41 43 38 41 43 39 39 37 44 46 48 50 44 52 51 48 34 36 38 40 41 46 80 57 56 39 42 51 54 60 74 87 85 79
93 89 91 97 85 80 72 70 64 62 44 42 44 44 46 50 44 46 42 47 56 56 54 60 73 62 55 49 48 48 46 44 55 50 48 34 33 32 49 58 64 74 80 79 76
93 95 86 85 81 83 77 75 69 66 68 74 66 76 70 55 44 46 39 43 47 72 68 66 66 57 55 47 51 54 48 48 47 43 51 44 44 32 33 57 70 75 74 75 72
84 78 97 80 83 77 64 68 72 70 66 63 67 76 74 58 49 48 52 44 42 71 76 67 74 68 63 42 49 51 42 44 49 46 40 49 37 36 52 58 66 74 66 65 56
Wind_Speed
11 9 9 8 7 6 6 7 9 10 12 13 14 15 16 17 11 8 3 8 12 13 13 15 13 10 7 3 2 2 3 2 4 5 6 10 10 5 9 7 4 4 4 13 30
14 12 11 10 10 9 9 7 8 10 12 14 15 15 15 17 10 5 6 10 10 10 9 12 8 13 2 2 2 1 1 4 6 8 11 12 5 9 8 3 3 4 9 31 32
15 14 12 12 11 10 11 11 10 11 13 15 18 18 13 13 2 2 10 7 9 9 6 8 11 6 3 0 2 2 3 8 12 9 9 10 7 7 9 4 3 9 4 16 28
17 16 14 13 12 13 12 12 13 14 15 16 19 17 12 3 4 3 11 6 8 8 7 7 4 2 3 3 5 4 6 9 9 13 12 12 9 9 1 4 5 12 13 11 23
19 18 15 13 12 14 14 15 14 14 16 16 18 13 5 3 2 4 7 5 6 6 4 2 4 5 4 7 7 8 4 9 7 9 11 12 11 6 12 7 3 14 20 19 17
22 21 17 13 13 13 15 16 16 15 15 16 14 8 2 1 3 7 5 4 6 9 8 5 2 2 5 5 3 3 4 8 5 9 6 9 14 5 7 8 11 10 14 17 22
24 22 18 15 14 13 13 15 16 16 15 13 9 3 3 6 2 5 6 3 6 4 3 4 3 3 5 5 5 6 5 6 6 6 6 6 15 5 10 5 11 9 10 19 24
26 23 18 17 17 14 14 15 16 15 13 8 2 1 5 4 3 2 3 4 3 4 4 3 1 2 2 4 5 2 2 4 5 6 5 7 18 14 8 4 11 8 7 10 15
28 24 19 19 18 16 15 15 13 9 5 2 2 2 6 2 2 5 0 1 5 8 5 6 2 3 2 2 3 1 4 4 7 6 5 6 11 6 8 2 9 13 8 10 9
27 26 22 19 18 14 15 9 4 2 3 2 4 1 3 2 3 3 5 2 1 5 4 3 2 2 1 2 3 2 5 5 5 3 7 14 18 14 16 9 9 12 8 11 14
29 27 24 20 15 14 15 3 5 3 2 5 3 4 0 2 2 5 6 2 3 2 3 3 1 4 7 4 6 6 5 6 6 8 1 9 15 15 13 9 7 8 8 7 11
32 27 25 19 11 11 7 5 2 1 6 9 9 3 4 2 2 4 5 1 3 4 0 3 4 6 6 4 4 7 7 7 7 8 4 9 11 16 12 12 7 8 8 8 6
33 30 26 17 6 7 8 4 1 1 1 5 3 3 2 4 4 5 8 2 4 4 5 4 4 1 3 5 5 3 5 3 7 8 6 5 8 8 11 11 10 12 8 6 11
33 31 26 18 3 7 2 7 3 1 4 4 3 3 2 1 4 2 8 2 3 4 5 5 4 2 2 4 5 3 5 3 9 6 3 2 5 7 9 10 10 10 7 8 8
32 30 23 11 7 3 5 6 4 1 5 4 2 2 2 4 4 3 3 3 4 4 3 7 4 5 4 5 3 6 2 5 6 6 4 4 1 7 6 9 11 10 9 8 9
32 26 23 7 5 3 7 6 1 5 4 3 2 3 2 5 3 2 1 1 3 3 4 9 1 3 5 3 4 3 5 4 2 1 2 6 5 6 4 10 8 5 8 8 8
33 25 16 8 2 5 5 2 5 4 2 3 3 1 3 4 3 6 4 3 3 3 3 6 4 2 2 3 1 1 4 3 1 2 5 6 2 10 8 2 8 8 9 11 13
32 26 11 8 6 3 1 5 3 4 5 0 2 2 4 2 4 3 3 4 2 3 1 1 7 7 4 5 3 5 4 4 3 2 5 4 5 6 5 2 2 2 10 12 14
29 18 9 4 5 5 4 3 7 6 2 1 5 2 3 3 2 2 6 5 6 7 6 1 5 2 4 2 5 2 4 4 2 2 2 3 7 8 4 5 5 8 6 12 15
23 9 5 2 3 3 4 7 5 3 5 2 5 6 3 2 2 3 3 3 4 2 2 4 4 4 3 1 5 4 2 3 2 2 4 5 5 5 6 7 5 6 3 8 14
4 3 2 1 3 4 3 6 5 0 3 5 3 4 7 3 5 3 6 2 4 4 3 3 3 5 2 6 6 3 3 5 2 4 4 3 6 5 7 7 5 5 5 11 12
9 3 4 1 2 2 2 4 4 1 1 4 3 5 5 3 3 5 6 6 7 6 5 5 3 5 9 3 4 4 6 6 4 5 2 2 6 1 0 3 4 6 8 9 13
6 3 3 2 1 3 7 7 4 4 5 3 3 6 1 4 3 6 4 0 6 7 5 3 3 4 4 4 1 4 5 5 2 2 6 3 6 1 2 1 3 8 8 9 11
3 4 4 3 1 3 7 7 6 8 4 4 4 3 1 3 4 5 2 2 5 4 4 2 3 7 6 4 3 4 5 6 6 3 4 7 6 5 6 6 5 6 8 8 10
2 2 3 4 4 10 6 5 10 7 2 3 4 5 6 4 5 6 5 2 3 4 4 4 5 4 10 12 7 10 10 10 9 8 6 5 6 5 8 10 8 7 9 12 12
4 4 5 6 7 6 6 4 11 8 8 9 6 16 16 8 11 17 6 4 7 3 6 3 4 3 5 10 10 9 12 12 10 10 10 13 19 10 9 7 7 9 10 9 8
8 7 1 5 4 4 5 7 13 16 10 6 14 15 12 13 5 11 9 10 7 8 9 6 4 1 6 3 5 8 11 11 6 6 8 9 11 3 4 10 12 11 11 12 13
Wind_Direction
347 339 331 328 326 330 336 341 344 345 340 338 338 339 342 345 352 345 51 328 325 334 334 338 332 280 280 283 270 313 239 277 251 265 267 321 343 315 273 204 127 177 154 153 163
354 343 332 318 311 314 314 321 331 336 337 340 339 339 339 343 345 71 351 334 336 344 354 337 331 331 266 230 213 159 223 241 250 271 304 309 331 313 338 196 61 70 55 139 153
358 346 330 313 298 298 303 310 317 325 329 336 340 340 339 337 336 205 343 345 1 12 4 322 304 307 300 347 202 239 214 265 285 295 320 306 321 335 340 349 341 152 348 156 149
356 345 333 311 297 290 291 297 307 318 322 329 337 337 342 353 359 287 343 348 16 10 347 338 318 290 263 254 217 238 251 265 285 297 302 302 301 325 49 348 224 169 169 281 156
354 346 337 327 302 289 289 293 298 307 314 322 331 338 356 356 242 308 343 20 7 340 311 355 37 2 346 334 331 239 262 286 312 328 311 319 299 281 299 292 20 148 168 191 193
354 348 341 333 330 311 297 294 295 298 304 313 325 333 323 299 195 329 30 29 353 347 350 75 63 299 282 282 290 294 285 276 275 300 295 307 303 333 281 330 326 190 197 184 199
355 353 353 348 338 327 314 303 298 297 297 305 313 328 280 242 250 346 354 6 343 333 330 61 75 63 335 296 333 288 313 296 252 248 262 1 300 221 272 312 294 282 202 193 196
358 355 356 350 340 330 321 313 306 299 293 294 274 163 250 236 251 205 316 332 275 311 276 285 238 189 195 311 303 259 347 305 282 237 269 122 266 273 296 345 280 270 178 176 242
3 358 351 349 343 333 328 318 315 309 285 206 161 175 282 238 217 198 220 284 302 261 253 271 258 218 172 47 332 300 288 243 302 217 257 180 269 303 278 278 278 275 192 197 191
4 359 351 346 345 344 341 326 359 53 72 130 268 355 245 234 175 200 240 242 281 322 283 223 221 298 299 89 334 278 303 285 255 284 211 252 265 271 276 297 300 258 243 194 192
3 359 353 346 350 355 352 3 16 4 249 218 196 232 191 186 241 216 196 239 239 247 244 225 28 263 260 204 229 256 257 289 289 267 318 245 250 259 263 267 294 265 264 200 169
1 359 354 346 349 9 12 58 125 229 313 272 245 267 238 156 283 205 166 257 210 274 244 339 251 252 308 303 272 280 285 294 297 323 223 285 263 260 255 260 254 266 252 216 174
356 358 354 350 355 16 50 50 23 119 299 293 215 249 221 157 255 194 160 242 251 262 285 241 248 204 244 292 294 266 260 302 302 300 284 262 283 276 274 238 247 271 253 195 183
349 355 355 355 64 359 49 355 6 308 59 272 252 248 148 226 274 140 189 146 286 269 290 263 185 184 263 270 261 279 189 281 301 334 256 76 286 289 262 234 224 242 251 214 160
344 349 354 357 333 18 329 328 339 305 23 242 204 163 145 203 308 220 151 127 228 269 15 261 200 226 255 236 240 243 200 237 266 285 318 287 91 263 261 245 232 230 226 192 162
337 342 339 332 321 281 326 327 55 41 272 319 176 239 239 196 250 107 223 209 230 284 218 242 232 197 221 271 220 319 292 283 177 172 322 262 166 268 256 238 245 228 200 175 145
332 333 318 301 268 303 326 60 29 124 306 260 277 181 281 251 233 188 200 230 194 25 334 308 200 200 156 285 212 148 19 356 21 346 235 236 320 242 254 331 224 201 189 160 151
329 331 307 278 243 273 81 56 105 235 243 320 250 278 224 216 251 215 271 275 219 142 248 176 323 164 180 211 187 209 169 154 261 240 271 323 266 260 300 169 119 20 199 154 154
328 332 289 274 197 168 85 75 215 204 187 312 320 274 264 213 215 264 219 219 204 188 174 203 273 165 191 236 140 326 191 191 222 247 45 252 283 304 309 300 40 24 173 157 163
327 317 313 176 187 125 92 224 235 200 131 126 207 190 253 233 217 169 250 192 189 201 121 234 291 231 167 73 253 186 301 36 355 292 297 283 272 244 306 283 342 51 99 129 156
332 349 7 180 172 52 195 234 282 212 153 185 244 261 230 258 211 232 258 253 168 174 165 274 156 287 114 190 192 137 257 221 209 163 212 289 272 215 255 265 229 149 126 131 129
347 341 4 105 27 245 225 236 339 229 140 259 239 243 229 222 252 240 237 214 169 151 186 212 223 258 228 240 167 173 220 179 141 270 252 172 272 249 277 9 190 173 143 131 129
334 282 328 309 242 316 315 308 306 252 209 194 262 230 266 249 217 221 262 72 150 159 196 185 244 311 335 342 326 197 205 208 171 81 223 171 265 209 290 343 126 135 135 132 134
349 339 330 28 324 357 353 304 336 329 279 259 257 268 261 274 241 269 253 216 197 197 138 71 245 207 228 242 135 220 221 193 164 156 232 224 264 248 244 224 164 146 140 136 133
10 351 7 337 338 327 324 301 309 346 334 317 315 230 220 264 277 226 247 219 205 196 163 172 246 230 260 270 270 257 244 218 199 213 206 254 229 217 216 209 193 161 143 144 147
25 354 353 303 288 334 331 322 307 341 347 320 346 345 328 265 257 286 300 204 218 159 174 202 258 255 279 251 251 260 258 245 225 233 248 255 267 266 250 154 159 160 148 146 156
2 343 309 287 331 327 264 323 321 336 291 315 334 321 309 307 290 287 265 260 215 171 194 179 206 181 265 298 311 288 244 212 208 202 193 218 236 215 154 171 176 166 164 164 158